This demonstration page uses our WeatherBlox Daily Observations layout. Learn more.

Hourly Observations for June 7, 2020

Temp ( °F °C ) Dew Point ( °F °C ) Humidity (%) Winds ( mph kmh ) Pressure ( in mb ) Visibility ( mi km ) Precip ( " mm )
12:15 am 00:15 Clear 79 26.3 63 17.3 58 58 SSE 22 35 29.62 1003 10 16.0934 0 0
12:35 am 00:35 Clear 79 26.2 63 17.1 57 57 SSE 20 31 29.62 1003 10 16.0934 0 0
12:55 am 00:55 Clear 78 25.8 62 16.6 57 57 S 20 31 29.62 1003 10 16.0934 0 0
1:15 am 01:15 Clear 79 26.1 62 16.4 55 55 S 25 41 29.62 1003 10 16.0934 0 0
1:35 am 01:35 Clear 78 25.8 62 16.4 56 56 S 22 35 29.62 1003 10 16.0934 0 0
1:55 am 01:55 Clear 78 25.7 62 16.4 57 57 S 21 33 29.63 1003 10 16.0934 0 0
2:15 am 02:15 Clear 78 25.5 62 16.5 58 58 S 23 37 29.63 1003 10 16.0934 0 0
2:35 am 02:35 Clear 77 25.2 62 16.6 59 59 S 24 39 29.63 1003 10 16.0934 0 0
2:55 am 02:55 Clear 77 25.1 62 16.8 60 60 S 21 33 29.63 1003 10 16.0934 0 0
3:15 am 03:15 Clear 77 24.8 63 17 62 62 S 20 31 29.63 1003 10 16.0934 0 0
3:35 am 03:35 Clear 76 24.5 63 17 63 63 S 22 35 29.64 1004 10 16.0934 0 0
3:55 am 03:55 Clear 76 24.2 63 17.1 65 65 S 18 30 29.64 1004 10 16.0934 0 0
4:15 am 04:15 Clear 75 24.1 63 17.2 65 65 S 21 33 29.64 1004 10 16.0934 0 0
4:35 am 04:35 Partly Cloudy with Light Rain 75 23.9 64 17.5 68 68 S 20 31 29.63 1003 10 16.0934 0 0
4:55 am 04:55 Partly Cloudy 74 23.3 64 17.8 71 71 S 18 30 29.64 1004 10 16.0934 0 0
5:15 am 05:15 Clear 74 23.6 64 17.7 70 70 S 20 31 29.63 1003 10 16.0934 0 0
5:35 am 05:35 Clear 74 23.6 64 18 71 71 S 21 33 29.63 1003 10 16.0934 0 0
5:55 am 05:55 Clear 74 23.5 65 18.1 72 72 S 23 37 29.63 1003 10 16.0934 0 0
6:15 am 06:15 Sunny 74 23.1 65 18.5 75 75 SSE 21 33 29.64 1004 10 16.0934 0 0
6:35 am 06:35 Sunny 74 23.2 66 18.7 76 76 SSE 20 31 29.64 1004 10 16.0934 0 0
6:55 am 06:55 Sunny 74 23.3 66 18.8 76 76 S 21 33 29.64 1004 10 16.0934 0 0
7:15 am 07:15 Sunny 74 23.5 66 18.7 75 75 S 21 33 29.64 1004 10 16.0934 0 0
7:35 am 07:35 Sunny 75 24 66 18.9 73 73 S 22 35 29.64 1004 10 16.0934 0 0
7:55 am 07:55 Sunny 76 24.5 66 19 72 72 SSE 24 39 29.64 1004 10 16.0934 0 0
8:15 am 08:15 Sunny 75 24.1 66 18.7 72 72 S 24 39 29.63 1003 10 16.0934 0 0
8:35 am 08:35 Sunny 77 25.2 66 19 69 69 S 24 39 29.62 1003 10 16.0934 0 0
8:55 am 08:55 Sunny 78 25.6 66 18.9 67 67 S 28 44 29.62 1003 10 16.0934 0 0
9:15 am 09:15 Sunny 78 25.5 66 19 67 67 S 23 37 29.62 1003 10 16.0934 0 0
9:35 am 09:35 Sunny 80 26.6 66 18.9 63 63 S 22 35 29.6 1002 10 16.0934 0 0
9:55 am 09:55 Sunny 82 27.5 66 18.7 59 59 S 24 39 29.59 1002 10 16.0934 0 0
10:15 am 10:15 Sunny 82 27.6 65 18.5 58 58 S 26 43 29.59 1002 10 16.0934 0 0
10:35 am 10:35 Sunny 83 28.4 66 18.8 56 56 S 25 41 29.57 1001 10 16.0934 0 0
10:55 am 10:55 Sunny 85 29.2 66 18.8 53 53 S 26 43 29.57 1001 10 16.0934 0 0
11:15 am 11:15 Sunny 85 29.5 64 18 50 50 S 29 46 29.56 1001 10 16.0934 0 0
11:35 am 11:35 Sunny 86 30.1 64 18 48 48 S 35 56 29.56 1001 10 16.0934 0 0
11:55 am 11:55 Sunny 87 30.5 64 17.8 47 47 S 33 54 29.55 1001 10 16.0934 0 0
12:15 pm 12:15 Sunny 87 30.8 64 17.6 45 45 S 36 57 29.53 1000 10 16.0934 0 0
12:35 pm 12:35 Sunny 89 31.5 64 17.7 44 44 S 32 52 29.52 1000 10 16.0934 0 0
12:55 pm 12:55 Sunny 89 31.8 63 17.3 42 42 S 36 57 29.51 999 10 16.0934 0 0
1:15 pm 13:15 Sunny 90 32.3 64 17.5 41 41 S 37 59 29.49 999 10 16.0934 0 0
1:35 pm 13:35 Sunny 91 32.5 62 16.5 38 38 S 29 46 29.48 998 10 16.0934 0 0
1:55 pm 13:55 Sunny 91 33 61 16.1 36 36 S 25 41 29.47 998 10 16.0934 0 0
2:15 pm 14:15 Sunny 92 33.2 59 15.2 34 34 S 33 54 29.47 998 10 16.0934 0 0
2:35 pm 14:35 Sunny 92 33.3 59 14.9 33 33 S 39 63 29.47 998 10 16.0934 0 0
2:55 pm 14:55 Sunny 92 33.5 60 15.3 33 33 S 33 54 29.44 997 10 16.0934 0 0
3:15 pm 15:15 Sunny 92 33.6 58 14.5 32 32 S 32 52 29.44 997 10 16.0934 0 0
3:35 pm 15:35 Sunny 92 33.6 60 15.4 33 33 S 28 44 29.44 997 10 16.0934 0 0
3:55 pm 15:55 Sunny 92 33.6 59 14.9 32 32 S 31 50 29.43 997 10 16.0934 0 0
4:15 pm 16:15 Sunny 92 33.6 59 15.1 33 33 S 36 57 29.43 997 10 16.0934 0 0
4:35 pm 16:35 Sunny 93 33.7 59 15 32 32 S 30 48 29.43 997 10 16.0934 0 0
4:55 pm 16:55 Sunny 92 33.4 61 16.3 36 36 S 33 54 29.42 996 10 16.0934 0 0
5:15 pm 17:15 Partly Cloudy 92 33.5 62 16.5 36 36 S 28 44 29.42 996 10 16.0934 0 0
5:35 pm 17:35 Partly Cloudy 91 33 61 16.1 36 36 S 31 50 29.42 996 10 16.0934 0 0
5:55 pm 17:55 Partly Cloudy 91 32.8 60 15.4 35 35 SSE 35 56 29.42 996 10 16.0934 0 0
6:15 pm 18:15 Partly Cloudy 91 32.6 61 16.1 37 37 SSE 35 56 29.41 996 10 16.0934 0 0
6:35 pm 18:35 Partly Cloudy 90 32.2 61 16.2 38 38 SSE 28 44 29.42 996 10 16.0934 0 0
6:55 pm 18:55 Partly Cloudy 89 31.8 61 16.1 39 39 SSE 29 46 29.43 997 10 16.0934 0 0
7:15 pm 19:15 Sunny 89 31.5 59 15.2 37 37 SSE 31 50 29.44 997 10 16.0934 0 0
7:35 pm 19:35 Sunny 88 31.2 59 15.1 38 38 S 28 44 29.44 997 10 16.0934 0 0
7:55 pm 19:55 Sunny 87 30.6 58 14.7 38 38 SSE 28 44 29.44 997 10 16.0934 0 0
8:15 pm 20:15 Sunny 87 30.3 58 14.4 38 38 SSE 29 46 29.43 997 10 16.0934 0 0
8:35 pm 20:35 Sunny 85 29.6 58 14.5 40 40 SSE 25 41 29.43 997 10 16.0934 0 0
8:55 pm 20:55 Sunny 84 29.1 58 14.5 41 41 SSE 25 41 29.44 997 10 16.0934 0 0
9:15 pm 21:15 Clear 83 28.5 58 14.3 42 42 SSE 25 41 29.44 997 10 16.0934 0 0
9:35 pm 21:35 Clear 83 28.2 57 13.7 41 41 SSE 24 39 29.45 997 10 16.0934 0 0
9:55 pm 21:55 Clear 82 27.6 58 14.4 44 44 SSE 22 35 29.46 998 10 16.0934 0 0
10:15 pm 22:15 Clear 81 27.1 58 14.4 46 46 SSE 24 39 29.46 998 10 16.0934 0 0
10:35 pm 22:35 Clear 81 27 56 13.6 44 44 SSE 24 39 29.48 998 10 16.0934 0 0
10:55 pm 22:55 Clear 80 26.5 56 13.2 44 44 SSE 21 33 29.49 999 10 16.0934 0 0
11:15 pm 23:15 Clear 80 26.5 55 12.8 43 43 SSE 25 41 29.49 999 10 16.0934 0 0
11:35 pm 23:35 Clear 79 26 55 12.6 43 43 SSE 24 39 29.49 999 10 16.0934 0 0
11:55 pm 23:55 Clear 78 25.6 55 12.5 44 44 SSE 24 39 29.5 999 10 16.0934 0 0

Powered by AerisWeather